Crane Lake, MN

4:33 AM CST on January 24, 2018 (GMT -0600)
Crane Lake

Weather History for KCDD - December, 2011

Change the Weather History Date:

Saturday, December 24, 2011

  Actual Average Record
Temperature  
Mean Temperature 24 °F -  
Max Temperature 30 °F 16 °F 41 °F (2006)
Min Temperature 19 °F 0 °F -34 °F (2004)
Degree Days  
Heating Degree Days 40    
Moisture  
Dew Point 19 °F    
Average Humidity 80    
Maximum Humidity 93    
Minimum Humidity 64    
Precipitation  
Precipitation 0.00 in - - ()
Sea Level Pressure  
Sea Level Pressure 29.93 in    
Wind  
Wind Speed 2 mph (South)    
Max Wind Speed 8 mph    
Max Gust Speed -    
Visibility 10 miles    
Events      
Averages and records for this station are not official NWS values.
T = Trace of Precipitation, MM = Missing Value Source: NWS Daily Summary

Daily Weather History Graph

Daily Weather History Graph

Search for Another Location

Airport or City:

Trip Planner

Search our weather history database for the weather conditions in past years. The results will help you decide how hot, cold, wet, or windy it might be!

Date:

Astronomy

Dec. 24, 2011 Rise Set
Actual Time 7:59 AM CST 4:19 PM CST
Civil Twilight 7:22 AM CST 4:56 PM CST
Nautical Twilight 6:42 AM CST 5:36 PM CST
Astronomical Twilight 6:04 AM CST 6:14 PM CST
Moon 7:47 AM CST 4:34 PM CST
Length of Visible Light 9h 33m
Length of Day
8h 20m
New Moon, 0% of the Moon is Illuminated
Dec 24
New Moon
Dec 24
New
Jan 1
First Quarter
Jan 9
Full
Jan 16
Last Quarter

Hourly Weather History & Observations

Time (CST) Temp. Windchill Dew Point Humidity Pressure Visibility Wind Dir Wind Speed Gust Speed Precip Events Conditions
12:09 AM 21.2 °F - 17.6 °F 86% 30.07 in 10.0 mi Calm Calm - N/A   Overcast
12:29 AM 21.2 °F - 17.6 °F 86% 30.06 in 10.0 mi Calm Calm - N/A   Overcast
12:49 AM 21.2 °F - 17.6 °F 86% 30.06 in 10.0 mi Calm Calm - N/A   Overcast
1:09 AM 21.2 °F - 17.6 °F 86% 30.06 in 10.0 mi Calm Calm - N/A   Overcast
1:29 AM 21.2 °F - 17.6 °F 86% 30.06 in 10.0 mi Calm Calm - N/A   Overcast
1:49 AM 21.2 °F - 19.4 °F 93% 30.06 in 10.0 mi Calm Calm - N/A   Overcast
2:49 AM 21.2 °F - 19.4 °F 93% 30.07 in 10.0 mi Calm Calm - N/A   Overcast
3:09 AM 21.2 °F - 17.6 °F 86% 30.06 in 10.0 mi Calm Calm - N/A   Overcast
3:29 AM 21.2 °F - 17.6 °F 86% 30.06 in 10.0 mi Calm Calm - N/A   Overcast
4:29 AM 21.2 °F 13.6 °F 17.6 °F 86% 30.05 in 10.0 mi SSW 5.8 mph - N/A   Overcast
4:49 AM 21.2 °F - 17.6 °F 86% 30.05 in 10.0 mi Calm Calm - N/A   Overcast
5:09 AM 19.4 °F 12.8 °F 17.6 °F 93% 30.02 in 10.0 mi SSE 4.6 mph - N/A   Overcast
5:29 AM 19.4 °F - 17.6 °F 93% 30.02 in 10.0 mi Calm Calm - N/A   Overcast
5:49 AM 21.2 °F 14.9 °F 17.6 °F 86% 30.01 in 10.0 mi SSE 4.6 mph - N/A   Overcast
6:09 AM 21.2 °F 14.9 °F 17.6 °F 86% 30.01 in 10.0 mi SSE 4.6 mph - N/A   Overcast
6:29 AM 21.2 °F 12.6 °F 17.6 °F 86% 30.03 in 10.0 mi South 6.9 mph - N/A   Overcast
6:49 AM 21.2 °F 11.7 °F 17.6 °F 86% 30.03 in 10.0 mi South 8.1 mph - N/A   Overcast
7:09 AM 21.2 °F 11.7 °F 17.6 °F 86% 30.02 in 10.0 mi SSW 8.1 mph - N/A   Overcast
7:29 AM 19.4 °F 10.4 °F 17.6 °F 93% 30.01 in 10.0 mi South 6.9 mph - N/A   Overcast
7:49 AM 19.4 °F 14.3 °F 17.6 °F 93% 30.01 in 10.0 mi South 3.5 mph - N/A   Overcast
8:09 AM 19.4 °F 14.3 °F 17.6 °F 93% 30.01 in 10.0 mi SSW 3.5 mph - N/A   Overcast
8:29 AM 19.4 °F 12.8 °F 17.6 °F 93% 30.01 in 10.0 mi South 4.6 mph - N/A   Overcast
8:49 AM 19.4 °F 14.3 °F 17.6 °F 93% 29.99 in 10.0 mi South 3.5 mph - N/A   Overcast
9:09 AM 21.2 °F 13.6 °F 17.6 °F 86% 29.99 in 10.0 mi South 5.8 mph - N/A   Overcast
9:29 AM 21.2 °F 16.4 °F 17.6 °F 86% 29.98 in 10.0 mi SSW 3.5 mph - N/A   Overcast
9:49 AM 21.2 °F 14.9 °F 17.6 °F 86% 29.98 in 10.0 mi South 4.6 mph - N/A   Mostly Cloudy
10:09 AM 21.2 °F 13.6 °F 17.6 °F 86% 29.96 in 10.0 mi South 5.8 mph - N/A   Clear
10:49 AM 24.8 °F 19.1 °F 17.6 °F 74% 29.94 in 10.0 mi South 4.6 mph - N/A   Clear
11:09 AM 24.8 °F - 17.6 °F 74% 29.92 in 10.0 mi Calm Calm - N/A   Clear
11:49 AM 26.6 °F 20.0 °F 17.6 °F 69% 29.90 in 10.0 mi South 5.8 mph - N/A   Clear
12:09 PM 26.6 °F 18.2 °F 19.4 °F 74% 29.89 in 10.0 mi South 8.1 mph - N/A   Clear
12:29 PM 28.4 °F 22.2 °F 19.4 °F 69% 29.87 in 10.0 mi SSW 5.8 mph - N/A   Clear
12:49 PM 28.4 °F 24.6 °F 19.4 °F 69% 29.87 in 10.0 mi South 3.5 mph - N/A   Clear
1:09 PM 28.4 °F 23.3 °F 19.4 °F 69% 29.85 in 10.0 mi South 4.6 mph - N/A   Clear
1:29 PM 28.4 °F 23.3 °F 19.4 °F 69% 29.85 in 10.0 mi South 4.6 mph - N/A   Clear
1:49 PM 28.4 °F 23.3 °F 19.4 °F 69% 29.85 in 10.0 mi South 4.6 mph - N/A   Clear
2:09 PM 30.2 °F 25.4 °F 19.4 °F 64% 29.85 in 10.0 mi South 4.6 mph - N/A   Clear
2:29 PM 30.2 °F 25.4 °F 19.4 °F 64% 29.85 in 10.0 mi SW 4.6 mph - N/A   Clear
3:09 PM 28.4 °F 24.6 °F 19.4 °F 69% 29.85 in 10.0 mi South 3.5 mph - N/A   Scattered Clouds
3:29 PM 28.4 °F 24.6 °F 19.4 °F 69% 29.84 in 10.0 mi SSW 3.5 mph - N/A   Clear
3:49 PM 28.4 °F 23.3 °F 19.4 °F 69% 29.84 in 10.0 mi South 4.6 mph - N/A   Clear
4:09 PM 26.6 °F 22.6 °F 19.4 °F 74% 29.84 in 10.0 mi SW 3.5 mph - N/A   Clear
4:29 PM 26.6 °F 21.2 °F 19.4 °F 74% 29.84 in 10.0 mi SSW 4.6 mph - N/A   Scattered Clouds
4:49 PM 26.6 °F 21.2 °F 19.4 °F 74% 29.84 in 10.0 mi SSW 4.6 mph - N/A   Scattered Clouds
5:09 PM 26.6 °F 22.6 °F 19.4 °F 74% 29.84 in 10.0 mi SSW 3.5 mph - N/A   Scattered Clouds
5:29 PM 26.6 °F - 19.4 °F 74% 29.84 in 10.0 mi Calm Calm - N/A   Clear
5:49 PM 26.6 °F - 19.4 °F 74% 29.83 in 10.0 mi Calm Calm - N/A   Clear
6:09 PM 26.6 °F 22.6 °F 19.4 °F 74% 29.83 in 10.0 mi South 3.5 mph - N/A   Clear
6:29 PM 26.6 °F 22.6 °F 19.4 °F 74% 29.83 in 10.0 mi SSW 3.5 mph - N/A   Scattered Clouds
6:49 PM 26.6 °F 22.6 °F 19.4 °F 74% 29.82 in 10.0 mi South 3.5 mph - N/A   Scattered Clouds
7:09 PM 26.6 °F 21.2 °F 19.4 °F 74% 29.82 in 10.0 mi South 4.6 mph - N/A   Scattered Clouds
7:29 PM 26.6 °F 22.6 °F 19.4 °F 74% 29.80 in 10.0 mi South 3.5 mph - N/A   Scattered Clouds
7:49 PM 26.6 °F 22.6 °F 19.4 °F 74% 29.80 in 10.0 mi South 3.5 mph - N/A   Scattered Clouds
8:09 PM 26.6 °F - 19.4 °F 74% 29.79 in 10.0 mi Calm Calm - N/A   Clear
8:29 PM 26.6 °F 22.6 °F 21.2 °F 80% 29.79 in 10.0 mi SSW 3.5 mph - N/A   Scattered Clouds
8:49 PM 26.6 °F - 21.2 °F 80% 29.78 in 10.0 mi Calm Calm - N/A   Scattered Clouds
9:09 PM 28.4 °F - 21.2 °F 74% 29.78 in 10.0 mi Calm Calm - N/A   Scattered Clouds
9:29 PM 28.4 °F - 21.2 °F 74% 29.77 in 10.0 mi Calm Calm - N/A   Clear
9:49 PM 28.4 °F - 21.2 °F 74% 29.77 in 10.0 mi Calm Calm - N/A   Clear
10:09 PM 28.4 °F - 21.2 °F 74% 29.76 in 10.0 mi Calm Calm - N/A   Clear
10:29 PM 28.4 °F - 21.2 °F 74% 29.77 in 10.0 mi Calm Calm - N/A   Scattered Clouds
10:49 PM 28.4 °F 23.3 °F 23.0 °F 80% 29.77 in 10.0 mi West 4.6 mph - N/A   Scattered Clouds
11:09 PM 28.4 °F 23.3 °F 26.6 °F 93% 29.77 in 1.8 mi West 4.6 mph - N/A Snow Light Snow
11:29 PM 28.4 °F 22.2 °F 26.6 °F 93% 29.77 in 2.5 mi West 5.8 mph - N/A Snow Light Snow
11:49 PM 28.4 °F 24.6 °F 26.6 °F 93% 29.78 in 2.0 mi West 3.5 mph - N/A Snow Light Snow